Location: Fort Worth, Tx
(32.7431°N, 97.3695°W)
Time: 17:07:21
(UTC-04:00)

SR - Visible Passes

Search period start: 10 October 2024 00:00
Search period end: 20 October 2024 00:00
Orbit: 577 x 855 km, 66.7° (Epoch: 10 October)

Date Brightness Start Highest point End Pass type
(mag) Time Alt. Az. Time Alt. Az. Time Alt. Az.
12 Oct ? 07:25:15 10° SE 07:27:41 15° ESE 07:30:08 10° ENE visible
14 Oct ? 07:19:22 10° S 07:23:01 29° ESE 07:26:41 10° NE visible
15 Oct ? 06:29:43 10° ESE 06:30:15 10° ESE 06:30:46 10° E visible
16 Oct ? 07:14:15 10° SSW 07:18:22 58° ESE 07:22:33 10° NE visible
17 Oct ? 06:22:22 10° SSE 06:25:29 20° ESE 06:28:37 10° ENE visible
17 Oct ? 08:03:29 10° WSW 08:07:02 26° WNW 08:10:38 10° N visible
18 Oct ? 07:11:34 27° SW 07:13:47 70° WNW 07:18:03 10° NNE visible
19 Oct ? 06:21:12 38° E 06:21:12 38° E 06:24:44 10° NE visible
19 Oct ? 08:00:27 11° W 08:02:41 15° NW 08:05:10 10° NNW visible
